• In Uzbekistan
  • List of Countries
  • For 7 days
  • Water Temperature
  • Satellite Maps
  • Weather Map
  • Weather Widgets
  • user-avatar
    Login

    Hourly Weather Tiwi

    Today, 23 May, Thursday

    Time Temperature Precipitation Wind Pressure Humidity
    00:00 +34°C° 0 mm 6 mps 747 mmHg 44%
    01:00 +34°C° 0 mm 6 mps 747 mmHg 45%
    02:00 +34°C° 0 mm 5 mps 747 mmHg 47%
    03:00 +33°C° 0 mm 5 mps 747 mmHg 50%
    04:00 +33°C° 0 mm 5 mps 747 mmHg 54%
    05:00 +33°C° 0 mm 5 mps 747 mmHg 53%
    06:00 +33°C° 0 mm 4 mps 747 mmHg 52%
    07:00 +33°C° 0 mm 4 mps 747 mmHg 51%
    08:00 +34°C° 0 mm 4 mps 747 mmHg 49%
    09:00 +35°C° 0 mm 4 mps 747 mmHg 47%
    10:00 +35°C° 0 mm 3 mps 748 mmHg 44%
    11:00 +36°C° 0 mm 3 mps 747 mmHg 45%
    12:00 +36°C° 0 mm 3 mps 747 mmHg 46%
    13:00 +36°C° 0 mm 3 mps 747 mmHg 47%
    14:00 +37°C° 0 mm 3 mps 747 mmHg 47%
    15:00 +37°C° 0 mm 3 mps 746 mmHg 47%
    16:00 +37°C° 0 mm 3 mps 746 mmHg 47%
    17:00 +37°C° 0 mm 4 mps 746 mmHg 47%
    18:00 +36°C° 0 mm 4 mps 746 mmHg 48%
    19:00 +36°C° 0 mm 5 mps 746 mmHg 49%
    20:00 +35°C° 0 mm 5 mps 747 mmHg 49%
    21:00 +35°C° 0 mm 4 mps 747 mmHg 49%
    22:00 +35°C° 0 mm 4 mps 748 mmHg 50%
    23:00 +35°C° 0 mm 4 mps 747 mmHg 49%

    Tomorrow, 24 May, Friday

    Time Temperature Precipitation Wind Pressure Humidity
    00:00 +35°C° 0 mm 4 mps 747 mmHg 49%
    01:00 +35°C° 0 mm 3 mps 747 mmHg 48%
    02:00 +34°C° 0 mm 3 mps 747 mmHg 49%
    03:00 +34°C° 0 mm 2 mps 747 mmHg 50%
    04:00 +32°C° 0 mm 2 mps 747 mmHg 51%
    05:00 +34°C° 0 mm 2 mps 747 mmHg 46%
    06:00 +34°C° 0 mm 2 mps 748 mmHg 42%
    07:00 +34°C° 0 mm 1 mps 748 mmHg 37%
    08:00 +36°C° 0 mm 2 mps 749 mmHg 35%
    09:00 +37°C° 0 mm 2 mps 749 mmHg 32%
    10:00 +38°C° 0 mm 2 mps 749 mmHg 29%
    11:00 +38°C° 0 mm 2 mps 749 mmHg 30%
    12:00 +38°C° 0 mm 2 mps 749 mmHg 31%
    13:00 +39°C° 0 mm 2 mps 749 mmHg 32%
    14:00 +39°C° 0 mm 2 mps 748 mmHg 32%
    15:00 +39°C° 0 mm 2 mps 748 mmHg 33%
    16:00 +39°C° 0 mm 2 mps 748 mmHg 33%
    17:00 +39°C° 0 mm 2 mps 748 mmHg 35%
    18:00 +38°C° 0 mm 2 mps 748 mmHg 37%
    19:00 +38°C° 0 mm 2 mps 748 mmHg 38%
    20:00 +38°C° 0 mm 2 mps 748 mmHg 38%
    21:00 +38°C° 0 mm 2 mps 749 mmHg 38%
    22:00 +38°C° 0 mm 2 mps 749 mmHg 38%
    23:00 +37°C° 0 mm 2 mps 749 mmHg 40%

    Day after tomorrow, 25 May, Saturday

    Time Temperature Precipitation Wind Pressure Humidity
    00:00 +37°C° 0 mm 2 mps 749 mmHg 42%
    01:00 +37°C° 0 mm 2 mps 748 mmHg 43%
    02:00 +36°C° 0 mm 2 mps 748 mmHg 45%
    03:00 +35°C° 0 mm 1 mps 748 mmHg 47%
    04:00 +34°C° 0 mm 1 mps 748 mmHg 50%
    05:00 +35°C° 0 mm 1 mps 748 mmHg 45%
    06:00 +35°C° 0 mm 1 mps 748 mmHg 41%
    07:00 +34°C° 0 mm 0 mps 749 mmHg 37%
    08:00 +37°C° 0 mm 1 mps 749 mmHg 33%
    09:00 +39°C° 0 mm 1 mps 749 mmHg 28%
    10:00 +40°C° 0 mm 2 mps 749 mmHg 24%
    11:00 +41°C° 0 mm 2 mps 749 mmHg 23%
    12:00 +41°C° 0 mm 2 mps 749 mmHg 21%
    13:00 +42°C° 0 mm 2 mps 748 mmHg 20%
    14:00 +42°C° 0 mm 2 mps 748 mmHg 20%
    15:00 +42°C° 0 mm 2 mps 747 mmHg 19%
    16:00 +42°C° 0 mm 1 mps 747 mmHg 19%
    17:00 +42°C° 0 mm 1 mps 747 mmHg 19%
    18:00 +42°C° 0 mm 1 mps 747 mmHg 19%
    19:00 +41°C° 0 mm 1 mps 747 mmHg 19%
    20:00 +41°C° 0 mm 1 mps 747 mmHg 21%
    21:00 +40°C° 0 mm 1 mps 747 mmHg 23%
    22:00 +40°C° 0 mm 2 mps 748 mmHg 25%
    23:00 +39°C° 0 mm 2 mps 747 mmHg 27%

    26 May, Sunday

    Time Temperature Precipitation Wind Pressure Humidity
    00:00 +38°C° 0 mm 2 mps 747 mmHg 30%
    01:00 +38°C° 0 mm 2 mps 747 mmHg 32%
    02:00 +37°C° 0 mm 2 mps 747 mmHg 35%
    03:00 +36°C° 0 mm 1 mps 747 mmHg 39%
    04:00 +35°C° 0 mm 1 mps 746 mmHg 42%
    05:00 +36°C° 0 mm 1 mps 747 mmHg 37%
    06:00 +37°C° 0 mm 1 mps 747 mmHg 32%
    07:00 +37°C° 0 mm 1 mps 747 mmHg 26%
    08:00 +39°C° 0 mm 1 mps 747 mmHg 24%
    09:00 +40°C° 0 mm 1 mps 748 mmHg 22%
    10:00 +41°C° 0 mm 1 mps 748 mmHg 20%
    11:00 +42°C° 0 mm 1 mps 748 mmHg 19%
    12:00 +42°C° 0 mm 1 mps 747 mmHg 18%
    13:00 +43°C° 0 mm 1 mps 747 mmHg 17%
    14:00 +43°C° 0 mm 1 mps 746 mmHg 16%
    15:00 +43°C° 0 mm 2 mps 746 mmHg 16%
    16:00 +43°C° 0 mm 2 mps 746 mmHg 16%
    17:00 +42°C° 0 mm 2 mps 746 mmHg 19%
    18:00 +41°C° 0 mm 2 mps 746 mmHg 22%
    19:00 +40°C° 0 mm 3 mps 746 mmHg 26%
    20:00 +40°C° 0 mm 3 mps 746 mmHg 27%
    21:00 +39°C° 0 mm 3 mps 747 mmHg 29%
    22:00 +39°C° 0 mm 3 mps 747 mmHg 31%
    23:00 +39°C° 0 mm 2 mps 747 mmHg 33%

    27 May, Monday

    Time Temperature Precipitation Wind Pressure Humidity
    00:00 +38°C° 0 mm 2 mps 747 mmHg 35%
    01:00 +38°C° 0 mm 2 mps 746 mmHg 37%
    02:00 +38°C° 0 mm 2 mps 746 mmHg 36%
    03:00 +37°C° 0 mm 2 mps 746 mmHg 35%
    04:00 +37°C° 0 mm 2 mps 746 mmHg 33%
    05:00 +38°C° 0 mm 2 mps 746 mmHg 29%
    06:00 +39°C° 0 mm 1 mps 746 mmHg 24%
    07:00 +39°C° 0 mm 1 mps 747 mmHg 20%
    08:00 +40°C° 0 mm 1 mps 747 mmHg 18%
    09:00 +41°C° 0 mm 1 mps 747 mmHg 16%
    10:00 +42°C° 0 mm 1 mps 747 mmHg 14%
    11:00 +43°C° 0 mm 1 mps 747 mmHg 14%
    12:00 +43°C° 0 mm 1 mps 746 mmHg 14%
    13:00 +45°C° 0 mm 2 mps 746 mmHg 14%
    14:00 +43°C° 0 mm 2 mps 746 mmHg 15%
    15:00 +43°C° 0 mm 2 mps 745 mmHg 15%
    16:00 +43°C° 0 mm 2 mps 745 mmHg 15%
    17:00 +42°C° 0 mm 2 mps 745 mmHg 19%
    18:00 +42°C° 0 mm 3 mps 745 mmHg 23%
    19:00 +40°C° 0 mm 3 mps 745 mmHg 27%
    20:00 +40°C° 0 mm 3 mps 746 mmHg 28%
    21:00 +40°C° 0 mm 3 mps 746 mmHg 28%
    22:00 +40°C° 0 mm 2 mps 747 mmHg 28%
    23:00 +39°C° 0 mm 2 mps 746 mmHg 28%

    28 May, Tuesday

    Time Temperature Precipitation Wind Pressure Humidity
    00:00 +39°C° 0 mm 2 mps 746 mmHg 28%
    01:00 +38°C° 0 mm 2 mps 746 mmHg 29%
    02:00 +37°C° 0 mm 1 mps 745 mmHg 30%
    03:00 +36°C° 0 mm 1 mps 745 mmHg 32%
    04:00 +36°C° 0 mm 1 mps 745 mmHg 33%
    05:00 +37°C° 0 mm 1 mps 746 mmHg 28%
    06:00 +39°C° 0 mm 1 mps 746 mmHg 23%
    07:00 +40°C° 0 mm 1 mps 747 mmHg 18%
    08:00 +41°C° 0 mm 1 mps 747 mmHg 17%
    09:00 +41°C° 0 mm 1 mps 747 mmHg 15%
    10:00 +42°C° 0 mm 1 mps 747 mmHg 13%
    11:00 +42°C° 0 mm 1 mps 747 mmHg 14%
    12:00 +43°C° 0 mm 1 mps 746 mmHg 15%
    13:00 +43°C° 0 mm 1 mps 746 mmHg 15%
    14:00 +43°C° 0 mm 2 mps 745 mmHg 16%
    15:00 +43°C° 0 mm 2 mps 745 mmHg 17%
    16:00 +44°C° 0 mm 3 mps 745 mmHg 18%
    17:00 +43°C° 0 mm 3 mps 745 mmHg 19%
    18:00 +41°C° 0 mm 2 mps 745 mmHg 21%
    19:00 +41°C° 0 mm 2 mps 745 mmHg 23%
    20:00 +40°C° 0 mm 3 mps 746 mmHg 24%
    21:00 +40°C° 0 mm 3 mps 746 mmHg 26%
    22:00 +40°C° 0 mm 3 mps 746 mmHg 27%
    23:00 +39°C° 0 mm 3 mps 746 mmHg 29%
    Show more